User: anonymous   Login
Location: Franzen
(48.6167°N, 15.3833°E)
Time: 03:29:39
(UTC+00:00)
Language:

Cosmos 2227 - Orbit

View from above orbital plane
View from above orbital plane
View from above satellite
View from above satellite

Ground track
Ground track

The orbit data is extracted from the following two-line orbital elements,

1 22284U 92093A   21174.75120795 -.00000168  00000-0 -63924-4 0  9997
2 22284  70.9775  38.8533 0017079 118.8171 241.4668 14.13328400470004
Epoch (UTC): 23 June 2021 18:01:44
Eccentricity: 0.0017079
inclination: 70.9775°
perigee height: 835 km
apogee height: 860 km
right ascension of ascending node: 38.8533°
argument of perigee: 118.8171°
revolutions per day: 14.13328400
mean anomaly at epoch: 241.4668°
orbit number at epoch: 47000

The dashed part of the orbit path shows where the satellite is in the earth's shadow,  

DLR